Location: Austin
(30.3000°N, 97.7500°W)
Time: 06:05:41
(UTC-05:00)

Cosmos 2369 Rocket - Pass Details

Date: 16 June 2025
Orbit: 827 x 852 km, 71.0° (Epoch: 08 July)

Event Time Altitude Azimuth Distance (km) Brightness Sun altitude
Exits shadow 05:40:51 10° 257° (WSW) 2,474 4.0 -9.7°
Reaches altitude 10° 05:40:52 10° 257° (WSW) 2,472 4.0 -9.7°
Maximum altitude 05:44:43 19° 300° (WNW) 1,945 3.9 -9.0°
Drops below altitude 10° 05:48:36 10° 343° (NNW) 2,482 4.9 -8.3°
Sets 05:51:51 0° 2° (N) 3,421 5.9 -7.7°
